TimeMDT,TemperatureF,Dew PointF,Humidity,Sea Level PressureIn,VisibilityMPH,Wind Direction,Wind SpeedMPH,Gust SpeedMPH,PrecipitationIn,Events,Conditions,WindDirDegrees,DateUTC
12:15 AM,61.7,34.9,37,29.98,10.0,South,9.2,-,N/A,,Clear,170,2012-10-22 06:15:00
12:35 AM,61.3,35.1,37,29.98,10.0,South,8.1,-,N/A,,Clear,180,2012-10-22 06:35:00
1:15 AM,58.6,35.8,42,29.99,10.0,SSE,6.9,-,N/A,,Clear,150,2012-10-22 07:15:00
1:35 AM,57.2,35.6,44,29.98,10.0,South,6.9,-,N/A,,Clear,170,2012-10-22 07:35:00
1:55 AM,56.1,35.6,46,29.98,10.0,South,3.5,-,N/A,,Clear,180,2012-10-22 07:55:00
2:15 AM,54.1,35.1,49,29.98,10.0,SSW,4.6,-,N/A,,Clear,200,2012-10-22 08:15:00
2:35 AM,55.6,35.8,47,29.99,10.0,South,5.8,-,N/A,,Clear,190,2012-10-22 08:35:00
2:55 AM,54.7,35.8,49,29.99,10.0,South,5.8,-,N/A,,Clear,180,2012-10-22 08:55:00
3:15 AM,53.6,36.0,51,29.99,10.0,South,3.5,-,N/A,,Clear,180,2012-10-22 09:15:00
3:35 AM,52.0,35.6,54,29.99,10.0,SSW,4.6,-,N/A,,Clear,210,2012-10-22 09:35:00
4:35 AM,49.6,34.3,56,29.99,10.0,SSW,3.5,-,N/A,,Clear,210,2012-10-22 10:35:00
5:15 AM,47.7,34.5,60,30.00,10.0,Calm,Calm,-,N/A,,Clear,0,2012-10-22 11:15:00
5:35 AM,46.8,34.0,61,30.00,10.0,Calm,Calm,-,N/A,,Clear,0,2012-10-22 11:35:00
5:55 AM,46.6,34.2,62,30.01,10.0,Calm,Calm,-,N/A,,Clear,0,2012-10-22 11:55:00
6:15 AM,45.0,33.6,64,30.01,10.0,Calm,Calm,-,N/A,,Clear,0,2012-10-22 12:15:00
6:35 AM,46.2,34.5,64,30.02,10.0,West,5.8,-,N/A,,Clear,270,2012-10-22 12:35:00
7:15 AM,45.5,34.0,64,30.03,10.0,Calm,Calm,-,N/A,,Clear,0,2012-10-22 13:15:00
7:35 AM,45.0,34.3,66,30.03,10.0,Calm,Calm,-,N/A,,Clear,0,2012-10-22 13:35:00
7:55 AM,48.6,35.6,61,30.04,10.0,WSW,3.5,-,N/A,,Clear,240,2012-10-22 13:55:00
8:15 AM,52.3,36.0,54,30.04,10.0,Calm,Calm,-,N/A,,Clear,0,2012-10-22 14:15:00
9:15 AM,56.3,37.6,50,30.07,10.0,Calm,Calm,-,N/A,,Clear,0,2012-10-22 15:15:00
9:55 AM,60.1,37.6,43,30.08,10.0,Calm,Calm,-,N/A,,Clear,0,2012-10-22 15:55:00
10:15 AM,62.1,37.6,40,30.08,10.0,Calm,Calm,-,N/A,,Clear,0,2012-10-22 16:15:00
10:35 AM,64.2,37.4,37,30.08,10.0,SSE,3.5,-,N/A,,Clear,160,2012-10-22 16:35:00
10:55 AM,65.8,37.4,35,30.08,10.0,SE,4.6,-,N/A,,Clear,130,2012-10-22 16:55:00
11:15 AM,67.6,37.4,33,30.08,10.0,SSE,5.8,-,N/A,,Clear,160,2012-10-22 17:15:00
11:35 AM,68.9,37.6,32,30.06,10.0,SE,4.6,-,N/A,,Clear,130,2012-10-22 17:35:00
11:55 AM,69.4,37.6,31,30.06,10.0,South,3.5,-,N/A,,Clear,170,2012-10-22 17:55:00
12:15 PM,70.7,37.0,29,30.06,10.0,ESE,5.8,-,N/A,,Clear,120,2012-10-22 18:15:00
12:35 PM,71.6,37.2,29,30.04,10.0,ESE,5.8,-,N/A,,Clear,110,2012-10-22 18:35:00
12:55 PM,73.0,36.0,26,30.03,10.0,SSE,8.1,-,N/A,,Clear,150,2012-10-22 18:55:00
1:15 PM,73.9,36.0,25,30.02,10.0,South,5.8,-,N/A,,Clear,170,2012-10-22 19:15:00
1:35 PM,75.0,34.5,23,29.99,10.0,SE,10.4,18.4,N/A,,Clear,130,2012-10-22 19:35:00
1:55 PM,75.6,34.2,22,29.98,10.0,SE,9.2,-,N/A,,Clear,140,2012-10-22 19:55:00
2:15 PM,76.3,33.6,21,29.97,10.0,SE,11.5,-,N/A,,Clear,130,2012-10-22 20:15:00
2:35 PM,76.8,32.9,20,29.97,10.0,SSE,9.2,16.1,N/A,,Clear,150,2012-10-22 20:35:00
2:55 PM,78.6,31.5,18,29.96,10.0,SSW,11.5,-,N/A,,Clear,200,2012-10-22 20:55:00
3:15 PM,78.1,31.3,18,29.95,10.0,SE,10.4,-,N/A,,Clear,140,2012-10-22 21:15:00
3:35 PM,79.0,30.4,17,29.95,10.0,SSW,11.5,19.6,N/A,,Clear,200,2012-10-22 21:35:00
4:15 PM,78.1,31.8,19,29.94,10.0,SSE,15.0,24.2,N/A,,Clear,160,2012-10-22 22:15:00
4:35 PM,78.6,31.3,18,29.94,10.0,SSE,12.7,20.7,N/A,,Clear,160,2012-10-22 22:35:00
4:55 PM,77.9,31.3,18,29.94,10.0,SSE,16.1,21.9,N/A,,Clear,150,2012-10-22 22:55:00
5:15 PM,76.8,31.8,19,29.94,10.0,SE,16.1,-,N/A,,Clear,140,2012-10-22 23:15:00
5:35 PM,76.5,31.8,20,29.94,10.0,SSE,12.7,-,N/A,,Clear,150,2012-10-22 23:35:00
5:55 PM,76.3,30.9,19,29.94,10.0,South,12.7,19.6,N/A,,Clear,170,2012-10-22 23:55:00
6:15 PM,74.8,30.6,20,29.95,10.0,South,11.5,-,N/A,,Clear,180,2012-10-23 00:15:00
6:35 PM,72.7,32.0,22,29.96,10.0,South,9.2,-,N/A,,Clear,170,2012-10-23 00:35:00
7:15 PM,71.6,33.4,25,29.98,10.0,South,10.4,-,N/A,,Clear,190,2012-10-23 01:15:00
7:35 PM,70.9,33.8,26,29.98,10.0,South,10.4,-,N/A,,Clear,190,2012-10-23 01:35:00
7:55 PM,70.7,33.8,26,29.98,10.0,SSW,12.7,-,N/A,,Clear,200,2012-10-23 01:55:00
8:15 PM,67.3,33.3,28,29.99,10.0,SW,8.1,-,N/A,,Clear,220,2012-10-23 02:15:00
8:35 PM,65.1,32.9,30,30.00,10.0,SW,4.6,-,N/A,,Clear,230,2012-10-23 02:35:00
8:55 PM,63.9,33.8,33,30.01,10.0,SSE,3.5,-,N/A,,Clear,150,2012-10-23 02:55:00
9:15 PM,63.1,33.3,33,30.01,10.0,ESE,4.6,-,N/A,,Clear,120,2012-10-23 03:15:00
9:35 PM,61.9,33.1,34,30.01,10.0,SE,8.1,-,N/A,,Clear,130,2012-10-23 03:35:00
10:15 PM,59.2,32.0,36,30.01,10.0,SSW,5.8,-,N/A,,Clear,210,2012-10-23 04:15:00
10:35 PM,57.4,32.0,38,30.02,10.0,WSW,6.9,-,N/A,,Clear,240,2012-10-23 04:35:00
11:15 PM,57.0,31.1,37,30.02,10.0,South,3.5,-,N/A,,Clear,190,2012-10-23 05:15:00
11:35 PM,58.5,31.8,37,30.02,10.0,Calm,Calm,-,N/A,,Clear,0,2012-10-23 05:35:00
11:55 PM,54.7,31.3,41,30.01,10.0,Calm,Calm,-,N/A,,Clear,0,2012-10-23 05:55:00